Location: Haliburton Scout Reserve
(45.0900°N, 78.3200°W)
Time: 12:34:47
(UTC-05:00)

N. Korean satellite - Pass Details

Date: 06 December 2021
Orbit: 447 x 491 km, 97.3° (Epoch: 23 January)

Event Time Altitude Azimuth Distance (km) Brightness Sun altitude
Rises 05:09:25 0° 18° (NNE) 2,463 10.3 -25.2°
Reaches altitude 10° 05:11:32 10° 26° (NNE) 1,583 9.4 -24.9°
Maximum altitude 05:14:46 42° 99° (E) 655 7.6 -24.3°
Drops below altitude 10° 05:17:59 10° 171° (S) 1,570 9.3 -23.7°
Sets 05:20:04 0° 179° (S) 2,439 10.3 -23.4°
